• în România
  • Lista ţărilor
  • Pe 7 zile
  • Temperatura apei
  • Hartă satelitară
  • Meteo pe hartă
  • Widget-uri
  • user-avatar
    Intrare

    Meteo pe oră la Kamarang

    Astăzi, 20 Septembrie, Joi

    Timp Temperatura Precipitaţii Vânt Presiune Umiditate
    00:00 +21°C° 0.1 mm 0 m/s 713 mmHg 96%
    01:00 +20°C° 0.1 mm 0 m/s 712 mmHg 96%
    02:00 +20°C° 0 mm 0 m/s 712 mmHg 97%
    03:00 +20°C° 0 mm 0 m/s 712 mmHg 97%
    04:00 +20°C° 0 mm 0 m/s 712 mmHg 97%
    05:00 +20°C° 0 mm 0 m/s 712 mmHg 97%
    06:00 +21°C° 0 mm 0 m/s 713 mmHg 90%
    07:00 +23°C° 0 mm 0 m/s 713 mmHg 83%
    08:00 +24°C° 0 mm 0 m/s 713 mmHg 76%
    09:00 +28°C° 0 mm 1 m/s 713 mmHg 66%
    10:00 +31°C° 0 mm 1 m/s 713 mmHg 56%
    11:00 +33°C° 0 mm 1 m/s 714 mmHg 45%
    12:00 +34°C° 0.1 mm 2 m/s 713 mmHg 45%
    13:00 +35°C° 0.1 mm 2 m/s 712 mmHg 45%
    14:00 +35°C° 0.1 mm 2 m/s 711 mmHg 44%
    15:00 +32°C° 0.8 mm 2 m/s 711 mmHg 56%
    16:00 +30°C° 0.8 mm 2 m/s 711 mmHg 67%
    17:00 +28°C° 0.8 mm 2 m/s 711 mmHg 78%
    18:00 +26°C° 1.9 mm 2 m/s 711 mmHg 84%
    19:00 +25°C° 1.9 mm 1 m/s 712 mmHg 90%
    20:00 +24°C° 1.9 mm 1 m/s 712 mmHg 97%
    21:00 +24°C° 1.1 mm 1 m/s 712 mmHg 97%
    22:00 +21°C° 1.1 mm 0 m/s 713 mmHg 97%
    23:00 +21°C° 1.1 mm 0 m/s 713 mmHg 98%

    Mâine, 21 Septembrie, Vineri

    Timp Temperatura Precipitaţii Vânt Presiune Umiditate
    00:00 +21°C° 0.5 mm 0 m/s 713 mmHg 98%
    01:00 +21°C° 0.5 mm 0 m/s 712 mmHg 98%
    02:00 +21°C° 0.5 mm 0 m/s 712 mmHg 98%
    03:00 +21°C° 0.1 mm 0 m/s 712 mmHg 98%
    04:00 +21°C° 0.1 mm 0 m/s 712 mmHg 98%
    05:00 +21°C° 0.1 mm 0 m/s 712 mmHg 98%
    06:00 +22°C° 0 mm 0 m/s 712 mmHg 94%
    07:00 +23°C° 0 mm 0 m/s 713 mmHg 90%
    08:00 +24°C° 0 mm 0 m/s 713 mmHg 86%
    09:00 +28°C° 0 mm 1 m/s 713 mmHg 74%
    10:00 +30°C° 0 mm 1 m/s 713 mmHg 62%
    11:00 +33°C° 0 mm 1 m/s 713 mmHg 50%
    12:00 +33°C° 0.4 mm 1 m/s 712 mmHg 52%
    13:00 +33°C° 0.4 mm 1 m/s 711 mmHg 54%
    14:00 +33°C° 0.4 mm 1 m/s 711 mmHg 57%
    15:00 +31°C° 1 mm 1 m/s 710 mmHg 64%
    16:00 +30°C° 1 mm 1 m/s 710 mmHg 71%
    17:00 +28°C° 1 mm 1 m/s 710 mmHg 79%
    18:00 +27°C° 1.7 mm 1 m/s 710 mmHg 84%
    19:00 +25°C° 1.7 mm 1 m/s 711 mmHg 90%
    20:00 +24°C° 1.7 mm 1 m/s 711 mmHg 95%
    21:00 +24°C° 0.5 mm 1 m/s 712 mmHg 95%
    22:00 +22°C° 0.5 mm 0 m/s 712 mmHg 95%
    23:00 +21°C° 0.5 mm 0 m/s 712 mmHg 95%

    Poimâine, 22 Septembrie, Sâmbătă

    Timp Temperatura Precipitaţii Vânt Presiune Umiditate
    00:00 +21°C° 0 mm 0 m/s 712 mmHg 95%
    01:00 +21°C° 0 mm 0 m/s 711 mmHg 95%
    02:00 +21°C° 0 mm 0 m/s 711 mmHg 95%
    03:00 +20°C° 0 mm 0 m/s 711 mmHg 95%
    04:00 +20°C° 0 mm 0 m/s 711 mmHg 95%
    05:00 +20°C° 0 mm 0 m/s 710 mmHg 94%
    06:00 +21°C° 0 mm 0 m/s 711 mmHg 90%
    07:00 +23°C° 0 mm 0 m/s 712 mmHg 85%
    08:00 +26°C° 0 mm 1 m/s 713 mmHg 80%
    09:00 +28°C° 0 mm 1 m/s 713 mmHg 69%
    10:00 +31°C° 0 mm 1 m/s 713 mmHg 57%
    11:00 +33°C° 0 mm 1 m/s 713 mmHg 45%
    12:00 +34°C° 0 mm 1 m/s 712 mmHg 43%
    13:00 +34°C° 0 mm 1 m/s 711 mmHg 40%
    14:00 +35°C° 0 mm 1 m/s 710 mmHg 38%
    15:00 +33°C° 0 mm 1 m/s 710 mmHg 44%
    16:00 +32°C° 0 mm 1 m/s 710 mmHg 49%
    17:00 +31°C° 0 mm 1 m/s 710 mmHg 54%
    18:00 +29°C° 0.6 mm 1 m/s 710 mmHg 64%
    19:00 +27°C° 0.6 mm 1 m/s 710 mmHg 75%
    20:00 +25°C° 0.6 mm 1 m/s 711 mmHg 85%
    21:00 +24°C° 0.6 mm 1 m/s 711 mmHg 87%
    22:00 +22°C° 0.6 mm 0 m/s 711 mmHg 89%
    23:00 +21°C° 0.6 mm 0 m/s 712 mmHg 91%

    23 Septembrie, Duminică

    Timp Temperatura Precipitaţii Vânt Presiune Umiditate
    00:00 +21°C° 0.2 mm 0 m/s 711 mmHg 92%
    01:00 +21°C° 0.2 mm 0 m/s 711 mmHg 93%
    02:00 +21°C° 0.2 mm 0 m/s 710 mmHg 94%
    03:00 +20°C° 0 mm 0 m/s 710 mmHg 94%
    04:00 +20°C° 0 mm 0 m/s 710 mmHg 94%
    05:00 +20°C° 0 mm 0 m/s 711 mmHg 94%
    06:00 +21°C° 0 mm 0 m/s 711 mmHg 90%
    07:00 +23°C° 0 mm 0 m/s 712 mmHg 85%
    08:00 +26°C° 0 mm 1 m/s 713 mmHg 80%
    09:00 +28°C° 0.1 mm 1 m/s 713 mmHg 70%
    10:00 +30°C° 0.1 mm 1 m/s 713 mmHg 60%
    11:00 +32°C° 0.1 mm 2 m/s 713 mmHg 50%
    12:00 +34°C° 0.3 mm 2 m/s 712 mmHg 48%
    13:00 +34°C° 0.3 mm 2 m/s 711 mmHg 47%
    14:00 +35°C° 0.3 mm 2 m/s 710 mmHg 45%
    15:00 +32°C° 0.3 mm 2 m/s 710 mmHg 51%
    16:00 +31°C° 0.3 mm 2 m/s 710 mmHg 56%
    17:00 +30°C° 0.3 mm 2 m/s 710 mmHg 62%
    18:00 +28°C° 0.9 mm 2 m/s 711 mmHg 73%
    19:00 +26°C° 0.9 mm 1 m/s 711 mmHg 83%
    20:00 +24°C° 0.9 mm 1 m/s 712 mmHg 94%
    21:00 +23°C° 0.4 mm 1 m/s 712 mmHg 95%
    22:00 +23°C° 0.4 mm 1 m/s 712 mmHg 96%
    23:00 +21°C° 0.4 mm 0 m/s 712 mmHg 97%

    24 Septembrie, Luni

    Timp Temperatura Precipitaţii Vânt Presiune Umiditate
    00:00 +21°C° 0.1 mm 0 m/s 712 mmHg 97%
    01:00 +20°C° 0.1 mm 0 m/s 712 mmHg 97%
    02:00 +22°C° 0.1 mm 1 m/s 711 mmHg 97%
    03:00 +20°C° 0 mm 0 m/s 711 mmHg 97%
    04:00 +20°C° 0 mm 0 m/s 711 mmHg 97%
    05:00 +20°C° 0 mm 0 m/s 712 mmHg 97%
    06:00 +21°C° 0 mm 0 m/s 712 mmHg 92%
    07:00 +24°C° 0 mm 1 m/s 713 mmHg 87%
    08:00 +25°C° 0 mm 1 m/s 714 mmHg 82%
    09:00 +27°C° 0 mm 1 m/s 714 mmHg 72%
    10:00 +30°C° 0 mm 1 m/s 714 mmHg 62%
    11:00 +32°C° 0 mm 2 m/s 714 mmHg 51%
    12:00 +32°C° 0.1 mm 2 m/s 713 mmHg 49%
    13:00 +34°C° 0.1 mm 2 m/s 712 mmHg 46%
    14:00 +35°C° 0.1 mm 2 m/s 711 mmHg 43%
    15:00 +34°C° 0.2 mm 2 m/s 711 mmHg 49%
    16:00 +31°C° 0.2 mm 2 m/s 711 mmHg 54%
    17:00 +30°C° 0.2 mm 2 m/s 711 mmHg 60%
    18:00 +28°C° 0.5 mm 2 m/s 711 mmHg 70%
    19:00 +26°C° 0.5 mm 1 m/s 712 mmHg 81%
    20:00 +24°C° 0.5 mm 1 m/s 712 mmHg 91%
    21:00 +23°C° 0.2 mm 1 m/s 712 mmHg 93%
    22:00 +21°C° 0.2 mm 0 m/s 713 mmHg 94%
    23:00 +20°C° 0.2 mm 0 m/s 713 mmHg 96%

    25 Septembrie, Marţi

    Timp Temperatura Precipitaţii Vânt Presiune Umiditate
    00:00 +20°C° 0.1 mm 0 m/s 712 mmHg 96%
    01:00 +20°C° 0.1 mm 0 m/s 712 mmHg 97%
    02:00 +20°C° 0.1 mm 0 m/s 711 mmHg 97%
    03:00 +20°C° 0 mm 0 m/s 711 mmHg 97%
    04:00 +20°C° 0 mm 0 m/s 712 mmHg 97%
    05:00 +20°C° 0 mm 0 m/s 712 mmHg 97%
    06:00 +21°C° 0 mm 0 m/s 712 mmHg 92%
    07:00 +22°C° 0 mm 0 m/s 713 mmHg 87%
    08:00 +23°C° 0 mm 0 m/s 713 mmHg 82%
    09:00 +27°C° 0 mm 1 m/s 713 mmHg 73%
    10:00 +29°C° 0 mm 1 m/s 713 mmHg 63%
    11:00 +31°C° 0 mm 1 m/s 713 mmHg 53%
    12:00 +32°C° 0.1 mm 1 m/s 712 mmHg 51%
    13:00 +34°C° 0.1 mm 2 m/s 711 mmHg 48%
    14:00 +34°C° 0.1 mm 2 m/s 710 mmHg 46%
    15:00 +32°C° 0.8 mm 2 m/s 710 mmHg 56%
    16:00 +30°C° 0.8 mm 2 m/s 710 mmHg 66%
    17:00 +28°C° 0.8 mm 2 m/s 710 mmHg 76%
    18:00 +26°C° 2.1 mm 1 m/s 711 mmHg 83%
    19:00 +25°C° 2.1 mm 1 m/s 711 mmHg 90%
    20:00 +23°C° 2.1 mm 1 m/s 712 mmHg 97%
    21:00 +23°C° 0.3 mm 1 m/s 712 mmHg 97%
    22:00 +21°C° 0.3 mm 0 m/s 712 mmHg 98%
    23:00 +21°C° 0.3 mm 0 m/s 712 mmHg 98%
    Arată mai mult